Showing default

YAOGAN-30 K, 43170

Orbit data source: Space-Track

YAOGAN-30 K, 43170 is a payload satellite owned by PLA SSF (CN) in LEO that was launched on Thu, 25 Jan 2018 UTC via a CHANG ZHENG 2C launch vehicle from the Xichang Space Center, China (XSC). Payload-class satellites include a variety of spacecraft equipped with specific instruments for various scientific and technological missions. These include communications satellites like Starlink; space stations such as the ISS; scientific satellites like the Hubble; Earth observation satellites from companies like Planet Labs, Umbra, and HawkEye 360; GPS; miniature CubeSats for education and research; and military/defense satellites.

Loading next visibility...
Identifier
43170, 2018-011B
Orbit
LEO
Country
Flag of CNCN / PRC
Related business
Manufacturer
SECM
Mission
Operational Defense Sigint
Bus & Motor
Unknown
Mass
~500 kg wet, ~500 kg dry
Launch date (UTC)
2018-01-25 (8 years ago)
Launch vehicle
CHANG ZHENG 2C
Launch site
Xichang Space Center, China (XSC)
Object type
Payload
Rocket body
Debris
Shape & HBR
Box + 2 Pan, 0.5 m
Radar Cross Section
0.446 m², Large (>1 m²)

Expand to show TLE details & history
Last TLE update: 5 hours ago

TLE from 5 hours ago
0 YAOGAN-30 K
1 43170U 18011B   26125.97852397  .00003073  00000-0  22862-3 0  9998
2 43170  34.9969  48.1794 0004078 307.9079  52.1260 15.02542478451794
Epoch: 2026-05-05T23:29Z
TLE epoch observation values (Epoch: 2026-05-05T23:29:04.471Z)
Latitude
-0.00001°
Longitude
-167.93486°
Altitude
556.24 km
Speed
7.587 km/s
True Right ascension
03h 12m 43s
True Declination
0° 00' 00"
Sunlit
Object was in daylight at epoch
Visualization orbit readout
Latitude
Unknown
Longitude
Unknown
Altitude
Unknown
Speed
Unknown
Apparent Right ascension
Unknown
Apparent Declination
Unknown
Sunlit
N/A
Visualization observer readout
Local Sidereal Time
12:29:05
Azimuth
Unknown
Elevation
Unknown
Doppler factor
Unknown
Orbital elements
Apogee altitude
565.111 km
Perigee altitude
559.451 km
Semi-major axis
6,940.418 km
Eccentricity
0.00041
Inclination
34.9969°
RAAN
48.1794°
Arg. of periapsis
307.9079°
True anomaly
52.1629°
Mean anomaly
52.126°
Eccentric anomaly
52.14445°
Mean motion
3.75374 °/min
Orbital period
95.9 mins
BSTAR
0.00022862
Loading maneuver chart data...
Computing Atmospheric mass density...
Loading historical data...
Loading historical data...
Loading historical data...
Loading historical data...
Loading historical data...
Loading historical data...
Loading historical data...
Other satellites on launch #11 in the year 2018 (2018-01-25 UTC)

Documentation

Showing up to 5 results
|